TimeEDT,TemperatureF,Dew PointF,Humidity,Sea Level PressureIn,VisibilityMPH,Wind Direction,Wind SpeedMPH,Gust SpeedMPH,PrecipitationIn,Events,Conditions,WindDirDegrees,DateUTC
12:55 AM,32.2,19.6,60,30.17,10.0,SW,3.5,-,N/A,,Partly Cloudy,230,2013-03-15 04:55:00
1:55 AM,30.7,20.3,65,30.16,10.0,SW,5.8,-,N/A,,Scattered Clouds,230,2013-03-15 05:55:00
2:55 AM,32.2,25.5,76,30.15,10.0,SW,6.9,-,N/A,,Mostly Cloudy,230,2013-03-15 06:55:00
3:55 AM,29.7,25.7,85,30.12,10.0,SSW,6.9,-,N/A,,Scattered Clouds,210,2013-03-15 07:55:00
4:55 AM,29.5,25.7,86,30.10,10.0,SSW,4.6,-,N/A,,Scattered Clouds,200,2013-03-15 08:55:00
5:55 AM,28.4,25.5,89,30.08,10.0,South,6.9,-,N/A,,Partly Cloudy,180,2013-03-15 09:55:00
6:55 AM,28.2,25.3,89,30.06,10.0,South,8.1,-,N/A,,Clear,190,2013-03-15 10:55:00
7:55 AM,29.7,26.6,88,30.04,10.0,South,6.9,-,N/A,,Mostly Cloudy,180,2013-03-15 11:55:00
8:55 AM,31.8,28.4,87,30.04,10.0,South,5.8,-,N/A,,Overcast,180,2013-03-15 12:55:00
9:55 AM,35.6,30.2,81,30.02,10.0,SSW,10.4,-,N/A,,Overcast,200,2013-03-15 13:55:00
10:55 AM,38.8,30.6,72,30.01,10.0,SSW,11.5,-,N/A,,Partly Cloudy,210,2013-03-15 14:55:00
11:55 AM,40.3,30.4,68,29.98,10.0,SSW,8.1,-,N/A,,Overcast,210,2013-03-15 15:55:00
12:55 PM,42.8,30.9,63,29.97,10.0,SW,8.1,-,N/A,,Overcast,220,2013-03-15 16:55:00
1:55 PM,44.8,31.3,59,29.96,10.0,West,6.9,-,N/A,,Overcast,260,2013-03-15 17:55:00
2:55 PM,46.4,31.6,56,29.93,10.0,Variable,5.8,-,N/A,,Overcast,0,2013-03-15 18:55:00
3:55 PM,48.7,32.5,54,29.90,10.0,SW,11.5,-,N/A,,Overcast,220,2013-03-15 19:55:00
4:55 PM,50.5,33.8,53,29.89,10.0,SW,10.4,-,N/A,,Overcast,230,2013-03-15 20:55:00
5:55 PM,50.5,34.3,54,29.90,10.0,WSW,9.2,-,N/A,,Overcast,250,2013-03-15 21:55:00
6:55 PM,49.8,34.9,56,29.90,10.0,WSW,9.2,-,N/A,,Overcast,250,2013-03-15 22:55:00
7:20 PM,50.0,35.6,58,29.90,10.0,WSW,5.8,-,N/A,Rain,Light Rain,250,2013-03-15 23:20:00
8:09 PM,46.4,41.0,81,29.89,10.0,Calm,Calm,-,N/A,Rain,Light Rain,0,2013-03-16 00:09:00
8:55 PM,44.8,41.0,87,29.88,10.0,Calm,Calm,-,0.00,Rain,Light Rain,0,2013-03-16 00:55:00
9:50 PM,44.6,41.0,87,29.89,10.0,Calm,Calm,-,N/A,,Mostly Cloudy,0,2013-03-16 01:50:00
9:55 PM,43.9,40.8,89,29.89,10.0,Calm,Calm,-,0.01,,Mostly Cloudy,0,2013-03-16 01:55:00
10:55 PM,44.1,41.0,89,29.87,10.0,Calm,Calm,-,N/A,,Mostly Cloudy,0,2013-03-16 02:55:00
11:55 PM,43.7,39.6,85,29.83,10.0,East,4.6,-,N/A,,Mostly Cloudy,80,2013-03-16 03:55:00